Miscellaneous Local Product
Issued by NWS Hastings, NE

Home | Current Version | Previous Version | Graphics & Text | Print | Product List | Glossary On
Versions: 1 2 3 4 5 6 7 8 9 10 11 12 13 14 15 16 17 18 19 20 21 22 23 24 25 26 27 28 29 30 31 32 33 34 35 36 37 38 39 40 41 42 43 44 45 46 47 48 49 50
128
AXUS43 KGID 041702
MISGRI

GID CWA HOURLY WEATHER ROUNDUP
NATIONAL WEATHER SERVICE HASTINGS NE
1200 PM CDT WED MAY 04 2016

NOTE: "FAIR" INDICATES FEW OR NO CLOUDS BELOW 12,000 FEET WITH NO
SIGNIFICANT WEATHER AND/OR OBSTRUCTIONS TO VISIBILITY.

...SOUTH CENTRAL NEBRASKA...

CITY           SKY/WX    TMP DP  RH WIND       PRES   REMARKS
GRAND ISLAND   SUNNY     63  33  32 N13       30.13R
HASTINGS       SUNNY     63  36  36 N15G24    30.12R
KEARNEY        SUNNY     64  34  32 N15       30.14S
ORD            SUNNY     64  36  35 N12       30.12R
YORK           SUNNY     63  37  39 N12G20    30.11R
AURORA         SUNNY     64  33  31 N16       30.12R
LEXINGTON      SUNNY     65  37  34 N9G17     30.15S
HOLDREGE       SUNNY     63  35  35 N8        30.15R
HEBRON         SUNNY     62  32  31 N12G17    30.10R

...NEBRASKA PANHANDLE...

CITY           SKY/WX    TMP DP  RH WIND       PRES   REMARKS
CHADRON        SUNNY     70  42  36 CALM      30.16F
ALLIANCE       SUNNY     68  39  34 CALM      30.19S
SCOTTSBLUFF    SUNNY     68  41  37 CALM      30.20S
SIDNEY         SUNNY     70  38  31 CALM      30.22S

...WESTERN AND NORTH CENTRAL NEBRASKA...

CITY           SKY/WX    TMP DP  RH WIND       PRES   REMARKS
VALENTINE      SUNNY     67  31  26 MISG      30.15S
AINSWORTH      SUNNY     64  31  29 N8G18     30.15S
ONEILL         SUNNY     61  32  33 N13       30.14R
BROKEN BOW     SUNNY     66  38  35 N17       30.14R
IMPERIAL       SUNNY     70  40  33 N9        30.18F
NORTH PLATTE   SUNNY     68  43  40 VRB3      30.15S
MCCOOK         SUNNY     70  44  39 NE7       30.16S

...EASTERN NEBRASKA...

CITY           SKY/WX    TMP DP  RH WIND       PRES   REMARKS
NORFOLK        SUNNY     62  36  37 NW15      30.10R
SO SIOUX CITY  SUNNY     64  39  39 N16G23    30.08S
TEKAMAH        SUNNY     62  42  47 N17       30.08R
COLUMBUS       SUNNY     63  36  36 N10G21    30.11S
ALBION         SUNNY     61  36  39 N13G18    30.12R
OMAHA EPPLEY   MOSUNNY   64  41  42 N16       30.05S
OFFUTT AFB     SUNNY     62  39  42 N16G23    30.05R
MILLARD        SUNNY     62  38  42 N9G17     30.06R
LINCOLN        SUNNY     66  36  32 N17G24    30.09R
NEBRASKA CITY  SUNNY     63  35  35 N16       30.05R
BEATRICE       SUNNY     63  36  36 N15G24    30.08R
FALLS CITY     SUNNY     65  40  39 N15G21    30.03R

...NORTHERN KANSAS...

CITY           SKY/WX    TMP DP  RH WIND       PRES   REMARKS
GOODLAND       SUNNY     71  39  31 N10G18    30.19S
HILL CITY      SUNNY     70  38  31 N10       30.16R
NORTON         SUNNY     68  36  30 NW8       30.15S
PHILLIPSBURG   SUNNY     66  37  34 NW5       30.15R
SMITH CENTER   SUNNY     64  39  39 N13G20    30.13S
BELOIT         SUNNY     66  34  30 N14G21    30.10S
HAYS           SUNNY     68  39  34 NE9       30.14R
RUSSELL        SUNNY     68  39  34 N10       30.11R
CONCORDIA      SUNNY     66  35  31 N13       30.09S
SALINA         SUNNY     70  39  32 N20       30.09S
TOPEKA         SUNNY     67  37  33 NW16G29   30.03R



USA.gov is the U.S. government's official web portal to all federal, state and local government web resources and services.